| time (UTC) | temp F | wind direction | speed MPH | gust MPH | rain 1hr in | rain 24hr in | rain mn in | humidity % | barometer mb |
| 20260508220505 | 78 | 176 | 7.0 | 13.0 | 0.00 | 0.66 | 0.66 | 65 | 1009.0 |
| 20260508220005 | 78 | 187 | 4.0 | 10.0 | 0.00 | 0.66 | 0.66 | 64 | 1009.1 |
| 20260508215506 | 77 | 171 | 3.0 | 9.0 | 0.00 | 0.66 | 0.66 | 65 | 1009.0 |
| 20260508215005 | 78 | 134 | 9.0 | 14.0 | 0.00 | 0.66 | 0.66 | 64 | 1009.0 |
| 20260508214006 | 78 | 166 | 7.0 | 17.0 | 0.00 | 0.66 | 0.66 | 64 | 1009.0 |
| 20260508213505 | 78 | 145 | 9.0 | 13.0 | 0.00 | 0.66 | 0.66 | 63 | 1009.1 |
| 20260508213006 | 78 | 171 | 9.0 | 15.0 | 0.00 | 0.66 | 0.66 | 62 | 1009.0 |
| 20260508211505 | 78 | 171 | 7.0 | 15.0 | 0.00 | 0.66 | 0.66 | 63 | 1009.2 |
| 20260508211005 | 77 | 144 | 8.0 | 13.0 | 0.00 | 0.66 | 0.66 | 62 | 1009.7 |
| 20260508210505 | 78 | 166 | 5.0 | 13.0 | 0.00 | 0.66 | 0.66 | 62 | 1009.9 |
| 20260508210005 | 78 | 183 | 8.0 | 13.0 | 0.00 | 0.66 | 0.66 | 63 | 1010.0 |
| 20260508205505 | 77 | 195 | 5.0 | 9.0 | 0.00 | 0.66 | 0.66 | 63 | 1010.1 |
| 20260508205005 | 76 | 233 | 4.0 | 10.0 | 0.00 | 0.66 | 0.66 | 65 | 1010.4 |
| 20260508204505 | 75 | 184 | 2.0 | 13.0 | 0.00 | 0.66 | 0.66 | 66 | 1010.6 |
| 20260508204006 | 75 | 182 | 4.0 | 12.0 | 0.00 | 0.66 | 0.66 | 66 | 1010.9 |
| 20260508203006 | 76 | 192 | 6.0 | 13.0 | 0.00 | 0.66 | 0.66 | 64 | 1011.0 |
| 20260508202505 | 76 | 193 | 5.0 | 13.0 | 0.00 | 0.66 | 0.66 | 64 | 1011.0 |
| 20260508202005 | 76 | 206 | 3.0 | 8.0 | 0.00 | 0.66 | 0.66 | 65 | 1010.9 |
| 20260508201505 | 76 | 195 | 3.0 | 9.0 | 0.00 | 0.66 | 0.66 | 64 | 1010.9 |
| 20260508201005 | 76 | 200 | 3.0 | 8.0 | 0.00 | 0.66 | 0.66 | 64 | 1011.1 |
| 20260508200505 | 77 | 191 | 4.0 | 13.0 | 0.00 | 0.66 | 0.66 | 63 | 1011.1 |
| 20260508195505 | 77 | 209 | 4.0 | 10.0 | 0.00 | 0.66 | 0.66 | 62 | 1011.1 |
| 20260508195006 | 77 | 188 | 4.0 | 9.0 | 0.00 | 0.66 | 0.66 | 62 | 1011.2 |
| 20260508194505 | 77 | 186 | 6.0 | 13.0 | 0.00 | 0.66 | 0.66 | 61 | 1011.2 |
| 20260508194005 | 78 | 181 | 6.0 | 13.0 | 0.00 | 0.66 | 0.66 | 62 | 1011.3 |
| 20260508193505 | 78 | 187 | 5.0 | 12.0 | 0.00 | 0.66 | 0.66 | 63 | 1011.4 |
| 20260508192505 | 78 | 188 | 5.0 | 10.0 | 0.00 | 0.66 | 0.66 | 61 | 1011.3 |
| 20260508191505 | 79 | 151 | 6.0 | 12.0 | 0.00 | 0.66 | 0.66 | 59 | 1011.5 |
| 20260508191005 | 78 | 185 | 5.0 | 14.0 | 0.00 | 0.66 | 0.66 | 58 | 1011.5 |
| 20260508190005 | 79 | 211 | 5.0 | 12.0 | 0.00 | 0.66 | 0.66 | 57 | 1011.5 |
| 20260508185505 | 79 | 182 | 5.0 | 12.0 | 0.00 | 0.66 | 0.66 | 59 | 1011.5 |
| 20260508185005 | 78 | 222 | 2.0 | 12.0 | 0.00 | 0.66 | 0.66 | 59 | 1011.4 |
| 20260508184004 | 78 | 160 | 8.0 | 13.0 | 0.00 | 0.66 | 0.66 | 58 | 1011.5 |
| 20260508183005 | 78 | 183 | 5.0 | 13.0 | 0.00 | 0.66 | 0.66 | 58 | 1011.8 |
| 20260508182505 | 78 | 229 | 3.0 | 7.0 | 0.00 | 0.66 | 0.66 | 58 | 1011.8 |
| 20260508180505 | 78 | 191 | 5.0 | 9.0 | 0.00 | 0.66 | 0.66 | 59 | 1012.2 |
| 20260508175505 | 77 | 188 | 3.0 | 8.0 | 0.00 | 0.66 | 0.66 | 60 | 1012.4 |
| 20260508175005 | 77 | 158 | 7.0 | 13.0 | 0.00 | 0.66 | 0.66 | 60 | 1012.4 |
| 20260508174505 | 76 | 185 | 7.0 | 13.0 | 0.00 | 0.66 | 0.66 | 61 | 1012.3 |
| 20260508174005 | 76 | 159 | 6.0 | 9.0 | 0.00 | 0.66 | 0.66 | 61 | 1012.4 |
| 20260508173505 | 75 | 107 | 3.0 | 13.0 | 0.00 | 0.66 | 0.66 | 60 | 1012.5 |
| 20260508173005 | 76 | 183 | 5.0 | 8.0 | 0.00 | 0.66 | 0.66 | 60 | 1012.5 |
| 20260508172505 | 75 | 154 | 4.0 | 10.0 | 0.00 | 0.66 | 0.66 | 60 | 1012.8 |
| 20260508172005 | 75 | 139 | 5.0 | 13.0 | 0.00 | 0.66 | 0.66 | 63 | 1013.0 |
| 20260508171004 | 74 | 186 | 5.0 | 7.0 | 0.00 | 0.66 | 0.66 | 62 | 1013.5 |
| 20260508170004 | 74 | 150 | 5.0 | 10.0 | 0.00 | 0.66 | 0.66 | 61 | 1013.6 |
| 20260508165505 | 74 | 158 | 5.0 | 13.0 | 0.00 | 0.66 | 0.66 | 62 | 1013.7 |
| 20260508165005 | 74 | 200 | 3.0 | 8.0 | 0.00 | 0.66 | 0.66 | 63 | 1013.9 |
| 20260508164005 | 73 | 200 | 6.0 | 10.0 | 0.00 | 0.66 | 0.66 | 62 | 1014.0 |
| 20260508163505 | 71 | 171 | 6.0 | 8.0 | 0.00 | 0.66 | 0.66 | 64 | 1014.0 |
| 20260508162505 | 72 | 215 | 5.0 | 9.0 | 0.00 | 0.66 | 0.66 | 65 | 1014.2 |
| 20260508162005 | 71 | 210 | 5.0 | 10.0 | 0.00 | 0.66 | 0.66 | 66 | 1014.3 |
| 20260508161504 | 69 | 188 | 2.0 | 8.0 | 0.00 | 0.66 | 0.66 | 69 | 1014.3 |
| 20260508161005 | 69 | 171 | 6.0 | 12.0 | 0.00 | 0.66 | 0.66 | 68 | 1014.3 |
| 20260508160505 | 68 | 167 | 5.0 | 10.0 | 0.00 | 0.66 | 0.66 | 69 | 1014.3 |
| 20260508160004 | 68 | 186 | 7.0 | 13.0 | 0.00 | 0.66 | 0.66 | 69 | 1014.4 |
| 20260508155505 | 68 | 175 | 9.0 | 13.0 | 0.00 | 0.66 | 0.66 | 68 | 1014.4 |
| 20260508155005 | 68 | 189 | 5.0 | 13.0 | 0.00 | 0.66 | 0.66 | 70 | 1014.5 |
| 20260508154504 | 68 | 168 | 5.0 | 13.0 | 0.00 | 0.66 | 0.66 | 70 | 1014.7 |
| 20260508154005 | 68 | 149 | 3.0 | 7.0 | 0.00 | 0.66 | 0.66 | 70 | 1014.8 |
| 20260508153505 | 68 | 167 | 6.0 | 10.0 | 0.00 | 0.66 | 0.66 | 69 | 1014.7 |
| 20260508152004 | 68 | 179 | 5.0 | 10.0 | 0.00 | 0.66 | 0.66 | 72 | 1014.7 |
| 20260508151504 | 67 | 178 | 5.0 | 8.0 | 0.00 | 0.66 | 0.66 | 72 | 1014.8 |
| 20260508150504 | 67 | 158 | 4.0 | 8.0 | 0.00 | 0.66 | 0.66 | 74 | 1014.7 |
| 20260508150005 | 67 | 176 | 4.0 | 9.0 | 0.00 | 0.66 | 0.66 | 74 | 1014.8 |
| 20260508145504 | 67 | 184 | 2.0 | 5.0 | 0.00 | 0.66 | 0.66 | 74 | 1014.8 |
| 20260508145004 | 67 | 172 | 5.0 | 8.0 | 0.00 | 0.66 | 0.66 | 75 | 1014.9 |
| 20260508144004 | 65 | 179 | 3.0 | 9.0 | 0.00 | 0.66 | 0.66 | 78 | 1014.8 |
| 20260508143504 | 65 | 181 | 1.0 | 7.0 | 0.00 | 0.66 | 0.66 | 79 | 1014.9 |
| 20260508143004 | 65 | 160 | 2.0 | 10.0 | 0.00 | 0.66 | 0.66 | 80 | 1014.9 |
| 20260508142504 | 65 | 167 | 5.0 | 9.0 | 0.00 | 0.66 | 0.66 | 81 | 1014.9 |
| 20260508142005 | 64 | 174 | 2.0 | 9.0 | 0.01 | 0.66 | 0.66 | 83 | 1014.9 |
| 20260508141505 | 63 | 145 | 1.0 | 3.0 | 0.01 | 0.66 | 0.66 | 84 | 1015.0 |
| 20260508141005 | 64 | 153 | 1.0 | 6.0 | 0.01 | 0.66 | 0.66 | 83 | 1015.1 |
| 20260508140505 | 63 | 162 | 4.0 | 10.0 | 0.01 | 0.66 | 0.66 | 85 | 1015.1 |
| 20260508140005 | 63 | 161 | 5.0 | 7.0 | 0.01 | 0.66 | 0.66 | 84 | 1015.1 |
| 20260508135005 | 63 | 103 | 1.0 | 5.0 | 0.03 | 0.66 | 0.66 | 87 | 1014.9 |
| 20260508134504 | 62 | 162 | 1.0 | 2.0 | 0.03 | 0.66 | 0.66 | 88 | 1015.0 |
| 20260508134005 | 62 | 162 | 2.0 | 7.0 | 0.06 | 0.66 | 0.66 | 88 | 1014.9 |
| 20260508133504 | 61 | 163 | 2.0 | 6.0 | 0.07 | 0.66 | 0.66 | 89 | 1014.8 |
| 20260508133005 | 61 | 161 | 3.0 | 5.0 | 0.07 | 0.66 | 0.66 | 90 | 1015.0 |
| 20260508132504 | 61 | 155 | 2.0 | 7.0 | 0.07 | 0.66 | 0.66 | 90 | 1014.9 |
| 20260508132005 | 61 | 173 | 2.0 | 7.0 | 0.06 | 0.64 | 0.64 | 91 | 1015.0 |
| 20260508131504 | 60 | 176 | 3.0 | 5.0 | 0.07 | 0.64 | 0.64 | 92 | 1015.0 |
| 20260508131004 | 60 | 145 | 0.0 | 0.0 | 0.07 | 0.64 | 0.64 | 92 | 1014.9 |
| 20260508130504 | 60 | 145 | 0.0 | 0.0 | 0.07 | 0.64 | 0.64 | 92 | 1015.1 |
| 20260508130004 | 60 | 145 | 0.0 | 0.0 | 0.07 | 0.64 | 0.64 | 91 | 1014.9 |
| 20260508125505 | 60 | 145 | 0.0 | 2.0 | 0.06 | 0.63 | 0.63 | 91 | 1015.5 |
| 20260508125004 | 60 | 179 | 0.0 | 1.0 | 0.05 | 0.62 | 0.62 | 91 | 1015.5 |
| 20260508124504 | 60 | 179 | 1.0 | 3.0 | 0.05 | 0.62 | 0.62 | 91 | 1015.0 |
| 20260508124004 | 60 | 179 | 1.0 | 3.0 | 0.02 | 0.60 | 0.60 | 91 | 1015.0 |
| 20260508123504 | 60 | 179 | 1.0 | 3.0 | 0.01 | 0.59 | 0.59 | 90 | 1015.6 |
| 20260508123004 | 60 | 180 | 1.0 | 2.0 | 0.01 | 0.59 | 0.59 | 90 | 1015.6 |
| 20260508122004 | 60 | 179 | 0.0 | 1.0 | 0.01 | 0.59 | 0.59 | 90 | 1015.3 |
| 20260508121504 | 60 | 197 | 1.0 | 7.0 | 0.00 | 0.57 | 0.57 | 90 | 1015.3 |
| 20260508121004 | 60 | 178 | 5.0 | 7.0 | 0.05 | 0.57 | 0.57 | 90 | 1015.1 |
| 20260508120504 | 60 | 184 | 5.0 | 9.0 | 0.10 | 0.57 | 0.57 | 91 | 1015.1 |
| 20260508115504 | 60 | 175 | 7.0 | 10.0 | 0.17 | 0.57 | 0.57 | 92 | 1015.1 |
| 20260508115004 | 60 | 172 | 5.0 | 7.0 | 0.20 | 0.57 | 0.57 | 92 | 1015.4 |
| 20260508114504 | 60 | 172 | 3.0 | 7.0 | 0.20 | 0.57 | 0.57 | 92 | 1015.0 |
| 20260508114004 | 60 | 138 | 5.0 | 7.0 | 0.20 | 0.57 | 0.57 | 92 | 1014.8 |
| 20260508113004 | 60 | 170 | 2.0 | 7.0 | 0.20 | 0.57 | 0.57 | 93 | 1014.8 |
| 20260508112504 | 60 | 165 | 2.0 | 5.0 | 0.20 | 0.57 | 0.57 | 93 | 1015.1 |
| 20260508112004 | 60 | 165 | 3.0 | 5.0 | 0.21 | 0.57 | 0.57 | 92 | 1014.9 |
| 20260508111004 | 60 | 119 | 1.0 | 5.0 | 0.30 | 0.53 | 0.53 | 92 | 1014.7 |
| 20260508110504 | 60 | 133 | 2.0 | 5.0 | 0.26 | 0.47 | 0.47 | 92 | 1015.1 |
| 20260508110004 | 60 | 157 | 0.0 | 0.0 | 0.21 | 0.41 | 0.41 | 92 | 1015.5 |
| 20260508105504 | 61 | 264 | 0.0 | 0.0 | 0.20 | 0.40 | 0.40 | 92 | 1016.0 |
| 20260508105004 | 60 | 264 | 0.0 | 3.0 | 0.17 | 0.38 | 0.38 | 92 | 1015.7 |
| 20260508104004 | 60 | 140 | 1.0 | 5.0 | 0.17 | 0.38 | 0.38 | 92 | 1015.0 |
| 20260508103503 | 60 | 16 | 1.0 | 3.0 | 0.17 | 0.38 | 0.38 | 92 | 1015.6 |
| 20260508103004 | 60 | 138 | 0.0 | 2.0 | 0.17 | 0.38 | 0.38 | 92 | 1014.9 |
| 20260508102504 | 60 | 138 | 1.0 | 3.0 | 0.17 | 0.38 | 0.38 | 91 | 1014.4 |
| 20260508102004 | 60 | 138 | 1.0 | 5.0 | 0.16 | 0.37 | 0.37 | 91 | 1014.5 |
| 20260508101004 | 60 | 201 | 2.0 | 8.0 | 0.02 | 0.23 | 0.23 | 91 | 1014.2 |
| 20260508100504 | 60 | 186 | 3.0 | 8.0 | 0.01 | 0.21 | 0.21 | 91 | 1014.0 |
| 20260508100004 | 60 | 169 | 3.0 | 7.0 | 0.01 | 0.21 | 0.21 | 91 | 1014.0 |
| 20260508095504 | 60 | 204 | 2.0 | 5.0 | 0.01 | 0.21 | 0.21 | 92 | 1014.1 |
| 20260508095003 | 60 | 342 | 2.0 | 3.0 | 0.01 | 0.21 | 0.21 | 92 | 1014.2 |
| 20260508094004 | 60 | 342 | 0.0 | 1.0 | 0.01 | 0.21 | 0.21 | 91 | 1014.4 |
| 20260508093504 | 60 | 342 | 0.0 | 1.0 | 0.01 | 0.21 | 0.21 | 91 | 1014.2 |
| 20260508093004 | 60 | 342 | 0.0 | 2.0 | 0.01 | 0.21 | 0.21 | 91 | 1014.3 |
| 20260508092504 | 60 | 342 | 0.0 | 1.0 | 0.01 | 0.21 | 0.21 | 91 | 1014.5 |
| 20260508091504 | 60 | 342 | 1.0 | 3.0 | 0.03 | 0.21 | 0.21 | 91 | 1014.3 |
| 20260508091004 | 60 | 342 | 2.0 | 5.0 | 0.03 | 0.21 | 0.21 | 91 | 1014.4 |
| 20260508090004 | 60 | 342 | 0.0 | 0.0 | 0.05 | 0.20 | 0.20 | 90 | 1014.5 |
| 20260508085504 | 60 | 342 | 0.0 | 1.0 | 0.13 | 0.20 | 0.20 | 90 | 1014.8 |
| 20260508085004 | 60 | 342 | 0.0 | 0.0 | 0.20 | 0.20 | 0.20 | 90 | 1014.9 |
| 20260508084504 | 60 | 342 | 0.0 | 1.0 | 0.20 | 0.20 | 0.20 | 90 | 1015.3 |
| 20260508084004 | 60 | 342 | 1.0 | 5.0 | 0.20 | 0.20 | 0.20 | 89 | 1015.3 |
| 20260508083504 | 60 | 112 | 0.0 | 2.0 | 0.20 | 0.20 | 0.20 | 89 | 1014.6 |
| 20260508083004 | 60 | 112 | 3.0 | 9.0 | 0.20 | 0.20 | 0.20 | 88 | 1014.0 |
| 20260508082504 | 60 | 131 | 5.0 | 10.0 | 0.20 | 0.20 | 0.20 | 89 | 1014.5 |
| 20260508082004 | 60 | 132 | 3.0 | 6.0 | 0.18 | 0.18 | 0.18 | 89 | 1015.1 |
| 20260508081504 | 60 | 116 | 0.0 | 0.0 | 0.17 | 0.17 | 0.17 | 88 | 1015.5 |
| 20260508081004 | 60 | 116 | 0.0 | 0.0 | 0.17 | 0.17 | 0.17 | 87 | 1015.3 |
| 20260508080503 | 61 | 116 | 0.0 | 0.0 | 0.17 | 0.17 | 0.17 | 86 | 1015.5 |
| 20260508080004 | 62 | 116 | 1.0 | 3.0 | 0.15 | 0.15 | 0.15 | 83 | 1015.5 |
| 20260508075506 | 63 | 106 | 1.0 | 5.0 | 0.07 | 0.07 | 0.07 | 77 | 1016.2 |
| 20260508074507 | 63 | 209 | 0.0 | 0.0 | 0.00 | 0.00 | 0.00 | 76 | 1016.2 |
| 20260508074006 | 63 | 159 | 0.0 | 0.0 | 0.00 | 0.00 | 0.00 | 76 | 1016.3 |
| 20260508073507 | 62 | 159 | 0.0 | 0.0 | 0.00 | 0.00 | 0.00 | 76 | 1016.0 |
| 20260508073006 | 62 | 159 | 0.0 | 0.0 | 0.00 | 0.00 | 0.00 | 76 | 1015.6 |
| 20260508071006 | 62 | 159 | 1.0 | 1.0 | 0.00 | 0.00 | 0.00 | 75 | 1015.8 |
| 20260508070006 | 62 | 159 | 0.0 | 0.0 | 0.00 | 0.00 | 0.00 | 75 | 1015.7 |
| 20260508065006 | 62 | 159 | 1.0 | 2.0 | 0.00 | 0.00 | 0.00 | 75 | 1015.8 |
| 20260508064506 | 62 | 159 | 0.0 | 0.0 | 0.00 | 0.00 | 0.00 | 74 | 1016.0 |
| 20260508064006 | 62 | 159 | 0.0 | 0.0 | 0.00 | 0.00 | 0.00 | 74 | 1016.3 |
| 20260508063506 | 63 | 159 | 0.0 | 0.0 | 0.00 | 0.00 | 0.00 | 74 | 1016.3 |
| 20260508063006 | 63 | 159 | 0.0 | 0.0 | 0.00 | 0.00 | 0.00 | 73 | 1016.4 |
| 20260508062506 | 63 | 159 | 0.0 | 5.0 | 0.00 | 0.00 | 0.00 | 73 | 1016.4 |
| 20260508062006 | 63 | 159 | 3.0 | 6.0 | 0.00 | 0.00 | 0.00 | 73 | 1016.3 |
| 20260508061506 | 62 | 159 | 2.0 | 6.0 | 0.00 | 0.00 | 0.00 | 74 | 1016.4 |
| 20260508060507 | 62 | 159 | 0.0 | 0.0 | 0.00 | 0.00 | 0.00 | 74 | 1016.3 |
| 20260508060007 | 62 | 159 | 0.0 | 0.0 | 0.00 | 0.00 | 0.00 | 75 | 1016.3 |
| 20260508055006 | 62 | 159 | 0.0 | 0.0 | 0.00 | 0.00 | 0.00 | 75 | 1016.2 |
| 20260508054507 | 62 | 159 | 0.0 | 0.0 | 0.00 | 0.00 | 0.00 | 75 | 1016.2 |
| 20260508054006 | 62 | 159 | 0.0 | 0.0 | 0.00 | 0.00 | 0.00 | 75 | 1016.1 |
| 20260508053507 | 62 | 159 | 0.0 | 0.0 | 0.00 | 0.00 | 0.00 | 75 | 1016.1 |
| 20260508052507 | 62 | 159 | 0.0 | 0.0 | 0.00 | 0.00 | 0.00 | 74 | 1016.4 |
| 20260508052007 | 62 | 159 | 0.0 | 0.0 | 0.00 | 0.00 | 0.00 | 74 | 1016.5 |
| 20260508051006 | 62 | 159 | 0.0 | 0.0 | 0.00 | 0.00 | 0.00 | 74 | 1016.3 |
| 20260508050506 | 62 | 159 | 0.0 | 0.0 | 0.00 | 0.00 | 0.00 | 74 | 1016.2 |
| 20260508050006 | 62 | 159 | 0.0 | 0.0 | 0.00 | 0.00 | 0.00 | 74 | 1016.3 |
| 20260508045506 | 63 | 159 | 0.0 | 0.0 | 0.00 | 0.00 | 0.00 | 74 | 1016.3 |
| 20260508045006 | 63 | 159 | 0.0 | 0.0 | 0.00 | 0.00 | 0.00 | 73 | 1016.4 |
| 20260508044506 | 63 | 159 | 0.0 | 0.0 | 0.00 | 0.00 | 0.00 | 73 | 1016.3 |
| 20260508044006 | 63 | 159 | 0.0 | 0.0 | 0.00 | 0.00 | 0.00 | 72 | 1016.2 |
| 20260508043507 | 63 | 159 | 0.0 | 0.0 | 0.00 | 0.00 | 0.00 | 72 | 1016.2 |
| 20260508043006 | 63 | 159 | 0.0 | 0.0 | 0.00 | 0.00 | 0.00 | 72 | 1016.2 |
| 20260508042506 | 63 | 159 | 0.0 | 0.0 | 0.00 | 0.00 | 0.00 | 72 | 1016.2 |
| 20260508041506 | 63 | 159 | 0.0 | 0.0 | 0.00 | 0.00 | 0.00 | 72 | 1016.2 |
| 20260508041006 | 63 | 159 | 0.0 | 0.0 | 0.00 | 0.00 | 0.00 | 71 | 1016.2 |
| 20260508040506 | 63 | 159 | 0.0 | 0.0 | 0.00 | 0.00 | 0.00 | 71 | 1016.4 |
| 20260508035506 | 63 | 159 | 0.0 | 0.0 | 0.00 | 0.00 | 0.00 | 70 | 1016.2 |
| 20260508035006 | 64 | 159 | 0.0 | 0.0 | 0.00 | 0.00 | 0.00 | 70 | 1016.2 |
| 20260508033006 | 64 | 159 | 0.0 | 0.0 | 0.00 | 0.00 | 0.00 | 68 | 1016.0 |
| 20260508032506 | 64 | 159 | 0.0 | 0.0 | 0.00 | 0.00 | 0.00 | 68 | 1016.0 |
| 20260508031505 | 64 | 159 | 1.0 | 2.0 | 0.00 | 0.00 | 0.00 | 68 | 1016.1 |
| 20260508031006 | 64 | 159 | 0.0 | 6.0 | 0.00 | 0.00 | 0.00 | 67 | 1016.0 |
| 20260508030505 | 65 | 159 | 1.0 | 6.0 | 0.00 | 0.00 | 0.00 | 66 | 1016.0 |
| 20260508030006 | 65 | 159 | 1.0 | 5.0 | 0.00 | 0.00 | 0.00 | 66 | 1015.9 |
| 20260508025506 | 65 | 159 | 1.0 | 5.0 | 0.00 | 0.00 | 0.00 | 66 | 1015.9 |
| 20260508025006 | 65 | 159 | 1.0 | 2.0 | 0.00 | 0.00 | 0.00 | 66 | 1015.9 |
| 20260508024506 | 65 | 159 | 0.0 | 0.0 | 0.00 | 0.00 | 0.00 | 66 | 1015.8 |
| 20260508024006 | 65 | 159 | 0.0 | 0.0 | 0.00 | 0.00 | 0.00 | 65 | 1015.9 |
| 20260508023506 | 65 | 159 | 0.0 | 0.0 | 0.00 | 0.00 | 0.00 | 65 | 1015.8 |
| 20260508022506 | 65 | 159 | 0.0 | 2.0 | 0.00 | 0.00 | 0.00 | 64 | 1015.6 |
| 20260508022006 | 65 | 159 | 0.0 | 2.0 | 0.00 | 0.00 | 0.00 | 64 | 1015.6 |
| 20260508021506 | 66 | 159 | 1.0 | 2.0 | 0.00 | 0.00 | 0.00 | 63 | 1015.5 |
| 20260508021006 | 66 | 159 | 2.0 | 6.0 | 0.00 | 0.00 | 0.00 | 63 | 1015.5 |
| 20260508020506 | 66 | 159 | 2.0 | 5.0 | 0.00 | 0.00 | 0.00 | 62 | 1015.3 |
| 20260508020006 | 66 | 159 | 2.0 | 5.0 | 0.00 | 0.00 | 0.00 | 62 | 1015.3 |
| 20260508015006 | 66 | 159 | 4.0 | 7.0 | 0.00 | 0.00 | 0.00 | 62 | 1015.5 |
| 20260508014506 | 66 | 190 | 4.0 | 6.0 | 0.00 | 0.00 | 0.00 | 61 | 1015.6 |
| 20260508014006 | 66 | 165 | 5.0 | 7.0 | 0.00 | 0.00 | 0.00 | 61 | 1015.6 |
| 20260508013506 | 66 | 165 | 5.0 | 7.0 | 0.00 | 0.00 | 0.00 | 61 | 1015.5 |
| 20260508011506 | 67 | 161 | 6.0 | 10.0 | 0.00 | 0.00 | 0.00 | 61 | 1015.6 |
| 20260508011006 | 67 | 162 | 8.0 | 13.0 | 0.00 | 0.00 | 0.00 | 61 | 1015.5 |
| 20260508010506 | 67 | 167 | 6.0 | 9.0 | 0.00 | 0.00 | 0.00 | 61 | 1015.5 |
| 20260508010006 | 67 | 172 | 5.0 | 9.0 | 0.00 | 0.00 | 0.00 | 61 | 1015.3 |
| 20260508005506 | 68 | 178 | 7.0 | 14.0 | 0.00 | 0.00 | 0.00 | 60 | 1015.3 |
| 20260508005006 | 68 | 163 | 7.0 | 13.0 | 0.00 | 0.00 | 0.00 | 61 | 1015.4 |
| 20260508004006 | 68 | 162 | 6.0 | 12.0 | 0.00 | 0.00 | 0.00 | 60 | 1015.4 |
| 20260508002506 | 69 | 158 | 4.0 | 13.0 | 0.00 | 0.00 | 0.00 | 60 | 1015.5 |
| 20260508002005 | 69 | 164 | 7.0 | 12.0 | 0.00 | 0.00 | 0.00 | 60 | 1015.6 |
| 20260508001505 | 69 | 170 | 7.0 | 14.0 | 0.00 | 0.00 | 0.00 | 59 | 1015.6 |
| 20260508001005 | 70 | 168 | 7.0 | 15.0 | 0.00 | 0.00 | 0.00 | 59 | 1015.5 |
| 20260508000506 | 71 | 189 | 7.0 | 10.0 | 0.00 | 0.00 | 0.00 | 57 | 1015.5 |
| 20260507235005 | 72 | 107 | 5.0 | 8.0 | 0.00 | 0.00 | 0.00 | 49 | 1015.3 |
| 20260507234506 | 72 | 113 | 5.0 | 9.0 | 0.00 | 0.00 | 0.00 | 49 | 1015.4 |
| 20260507234005 | 72 | 128 | 3.0 | 7.0 | 0.00 | 0.00 | 0.00 | 49 | 1015.3 |
| 20260507233006 | 72 | 157 | 2.0 | 7.0 | 0.00 | 0.00 | 0.00 | 51 | 1015.4 |
| 20260507232506 | 72 | 111 | 4.0 | 7.0 | 0.00 | 0.00 | 0.00 | 49 | 1015.4 |
| 20260507231506 | 73 | 110 | 4.0 | 9.0 | 0.00 | 0.00 | 0.00 | 50 | 1015.5 |
| 20260507231005 | 73 | 108 | 3.0 | 8.0 | 0.00 | 0.00 | 0.00 | 49 | 1015.6 |
| 20260507230006 | 73 | 157 | 5.0 | 9.0 | 0.00 | 0.00 | 0.00 | 48 | 1015.4 |
| 20260507225506 | 73 | 156 | 3.0 | 6.0 | 0.00 | 0.00 | 0.00 | 46 | 1015.4 |
| 20260507225005 | 73 | 178 | 2.0 | 5.0 | 0.00 | 0.00 | 0.00 | 45 | 1015.4 |
| 20260507224506 | 73 | 178 | 0.0 | 3.0 | 0.00 | 0.00 | 0.00 | 44 | 1015.6 |
| 20260507224006 | 74 | 178 | 1.0 | 2.0 | 0.00 | 0.00 | 0.00 | 45 | 1015.7 |
| 20260507223506 | 74 | 178 | 1.0 | 5.0 | 0.00 | 0.00 | 0.00 | 44 | 1015.7 |
| 20260507222506 | 74 | 153 | 1.0 | 6.0 | 0.00 | 0.00 | 0.00 | 44 | 1015.7 |
| 20260507222006 | 74 | 110 | 3.0 | 7.0 | 0.00 | 0.00 | 0.00 | 46 | 1015.8 |
| 20260507221505 | 74 | 171 | 3.0 | 6.0 | 0.00 | 0.00 | 0.00 | 45 | 1015.7 |